Miscellaneous Local Product
Issued by NWS Hastings, NE

Home | Current Version | Previous Version | Graphics & Text | Print | Product List | Glossary On
Versions: 1 2 3 4 5 6 7 8 9 10 11 12 13 14 15 16 17 18 19 20 21 22 23 24 25 26 27 28 29 30 31 32 33 34 35 36 37 38 39 40 41 42 43 44 45 46 47 48 49 50
000
AXUS43 KGID 022102
MISGRI

GID CWA HOURLY WEATHER ROUNDUP
NATIONAL WEATHER SERVICE HASTINGS NE
400 PM CDT THU JUL 02 2015

NOTE: "FAIR" INDICATES FEW OR NO CLOUDS BELOW 12,000 FEET WITH NO
SIGNIFICANT WEATHER AND/OR OBSTRUCTIONS TO VISIBILITY.

...SOUTH CENTRAL NEBRASKA...

CITY           SKY/WX    TMP DP  RH WIND       PRES   REMARKS
GRAND ISLAND   TSTM      70  65  84 SE7       29.92F
HASTINGS       MOSUNNY   83  62  49 W8        29.92F
KEARNEY        MOSUNNY   81  64  57 N14       29.95S
ORD            MOSUNNY   84  62  47 N14G24    29.93R
YORK           MOSUNNY   75  68  78 E5        29.93F
AURORA         HVY RAIN  76  68  76 NE7       29.92S
LEXINGTON      MOSUNNY   78  68  71 N10       29.99F
HOLDREGE       MOSUNNY   83  61  46 NW7       29.97S
HEBRON         MOSUNNY   83  64  52 NW6       29.91F

...NEBRASKA PANHANDLE...

CITY           SKY/WX    TMP DP  RH WIND       PRES   REMARKS
CHADRON        MOSUNNY   80  60  50 NE8       30.08S
ALLIANCE       MOSUNNY   79  59  50 N12       30.10S
SCOTTSBLUFF    MOSUNNY   83  55  38 N9        30.11F
SIDNEY         MOSUNNY   82  57  42 N13G21    30.14F

...WESTERN AND NORTH CENTRAL NEBRASKA...

CITY           SKY/WX    TMP DP  RH WIND       PRES   REMARKS
VALENTINE      MOSUNNY   80  57  45 N16G24    30.02S
AINSWORTH      MOSUNNY   81  58  45 N23G29    30.01S
ONEILL         PTSUNNY   76  67  72 NE10      29.98R
BROKEN BOW     MOSUNNY   83  57  41 N20G26    29.97S
IMPERIAL       MOSUNNY   83  56  39 N14       30.06S
NORTH PLATTE   MOSUNNY   82  59  45 N10G21    30.01S
MCCOOK         MOSUNNY   88  58  36 N13       29.99F

...EASTERN NEBRASKA...

CITY           SKY/WX    TMP DP  RH WIND       PRES   REMARKS
NORFOLK        CLOUDY    67  64  90 E8        29.95F
SO SIOUX CITY  LGT RAIN  68  62  81 E9        29.98R
TEKAMAH        CLOUDY    70  64  81 E7        29.96F
COLUMBUS       PTSUNNY   72  64  78 E12       29.95F
ALBION         PTSUNNY   78  65  63 NE9       29.92S
OMAHA EPPLEY   CLOUDY    69  64  84 SE7       29.96R
OFFUTT AFB     PTSUNNY   70  66  88 E7        29.95R
MILLARD        CLOUDY    69  65  89 E3        29.95S
LINCOLN        CLOUDY    75  67  76 SE6       29.93F
NEBRASKA CITY  LGT RAIN  68  68  98 SE10      29.94F
BEATRICE       CLOUDY    70  67  92 NE8       29.94S
FALLS CITY     RAIN      70  67  90 E10       29.91F

...NORTHERN KANSAS...

CITY           SKY/WX    TMP DP  RH WIND       PRES   REMARKS
GOODLAND       SUNNY     85  57  38 N17G23    30.07F
HILL CITY      LGT RAIN  89  60  37 NE10      29.98F
NORTON         MOCLDY    86  52  30 N7G16     29.97F
PHILLIPSBURG   PTSUNNY   88  63  42 N12       29.95F
SMITH CENTER   MOSUNNY   82  63  51 W7        29.94F
HAYS           MOSUNNY   82  64  54 NW10G16   29.99S
RUSSELL        MOSUNNY   80  68  66 W6        29.97S
CONCORDIA      PTSUNNY   82  71  69 SW10      29.92F
SALINA         CLOUDY    82  72  71 W7        29.95R
TOPEKA         CLOUDY    74  69  85 NE7       29.92S



USA.gov is the U.S. government's official web portal to all federal, state and local government web resources and services.